GW2692 Weather Reports


time (UTC)temp
C
wind
direction
speed
KPH
gust
KPH
rain 1hr
cm
rain 24hr
cm
rain mn
cm
humidity
%
barometer
mb
20260508002200 15 316 3.2 4.8 0.00 1.22 0.03 43 966.4
20260508001701 15 308 3.2 9.7 0.00 1.22 0.03 43 966.3
20260508001200 15 321 3.2 9.7 0.00 1.22 0.03 44 966.2
20260508000700 15 315 3.2 8.0 0.00 1.22 0.03 44 966.1
20260507235200 16 318 3.2 11.3 0.00 1.47 0.03 44 965.9
20260507234701 16 325 4.8 12.9 0.00 1.52 0.03 43 965.8
20260507234201 16 306 3.2 9.7 0.00 1.78 0.03 44 965.8
20260507233201 16 310 3.2 9.7 0.00 1.88 0.03 45 965.6
20260507232700 16 306 3.2 8.0 0.00 1.88 0.03 46 965.6
20260507231701 17 319 3.2 9.7 0.00 1.88 0.03 44 965.3
20260507231200 18 315 4.8 12.9 0.00 1.88 0.03 44 965.1
20260507230701 18 325 4.8 11.3 0.00 1.88 0.03 49 965.1
20260507230201 17 292 1.6 4.8 0.00 1.88 0.03 59 965.0
20260507225700 17 331 3.2 9.7 0.00 1.88 0.03 61 965.0
20260507225200 17 324 1.6 4.8 0.00 1.88 0.03 64 964.9
20260507223701 17 52 1.6 4.8 0.00 1.88 0.03 68 964.9
20260507223201 17 117 3.2 4.8 0.00 1.88 0.03 64 964.7
20260507221701 16 228 0.0 3.2 0.00 1.88 0.03 66 964.6
20260507221201 16 106 1.6 3.2 0.00 1.88 0.03 66 964.6
20260507220701 17 123 3.2 4.8 0.00 1.88 0.03 65 964.5
20260507220201 17 78 1.6 3.2 0.00 1.88 0.03 64 964.5
20260507215201 17 86 1.6 8.0 0.00 1.88 0.03 61 964.4
20260507214700 17 160 1.6 3.2 0.00 1.88 0.03 62 964.4
20260507214201 18 115 4.8 8.0 0.00 1.88 0.03 61 964.5
20260507213201 18 100 3.2 8.0 0.00 1.88 0.03 58 964.4
20260507212701 18 345 1.6 9.7 0.00 1.88 0.03 58 964.3
20260507212200 18 74 1.6 9.7 0.00 1.88 0.03 59 964.2
20260507211200 18 108 4.8 8.0 0.00 1.88 0.03 58 964.3
20260507210701 18 110 3.2 9.7 0.00 1.88 0.03 57 964.3
20260507210201 18 134 3.2 9.7 0.00 1.88 0.03 56 964.2
20260507205700 18 10 1.6 4.8 0.00 1.88 0.03 56 964.2
20260507205200 18 293 1.6 8.0 0.00 1.88 0.03 57 964.3
20260507204701 18 117 4.8 9.7 0.00 1.88 0.03 57 964.2
20260507204200 18 90 1.6 8.0 0.00 1.88 0.03 55 964.2
20260507203701 18 93 3.2 8.0 0.00 1.88 0.03 57 964.3
20260507203202 18 62 3.2 8.0 0.00 1.88 0.03 56 964.3
20260507202700 18 88 1.6 4.8 0.00 1.88 0.03 56 964.4
20260507202200 18 144 1.6 4.8 0.00 1.88 0.03 55 964.4
20260507201701 18 303 1.6 4.8 0.00 1.88 0.03 55 964.5
20260507201200 17 349 3.2 4.8 0.00 1.88 0.03 56 964.3
20260507200700 17 210 1.6 4.8 0.00 1.88 0.03 56 964.5
20260507200201 17 300 1.6 8.0 0.00 1.88 0.03 55 964.5
20260507195701 17 92 1.6 4.8 0.00 1.88 0.03 56 964.6
20260507195201 16 288 1.6 4.8 0.00 1.88 0.03 55 964.7
20260507194700 16 152 3.2 4.8 0.00 1.88 0.03 56 964.8
20260507194201 16 140 1.6 4.8 0.00 1.88 0.03 55 964.9
20260507193201 16 166 8.0 12.9 0.00 1.88 0.03 55 965.0
20260507192700 16 144 4.8 11.3 0.00 1.88 0.03 55 965.0
20260507192201 16 167 4.8 9.7 0.00 1.88 0.03 55 964.9
20260507191701 16 40 4.8 11.3 0.00 1.88 0.03 55 965.2
20260507190700 16 153 4.8 9.7 0.00 1.88 0.03 55 965.3
20260507190201 16 304 3.2 4.8 0.00 1.88 0.03 57 965.4
20260507185701 16 141 4.8 8.0 0.00 1.88 0.03 55 965.4
20260507185202 16 162 1.6 3.2 0.00 1.88 0.03 55 965.4
20260507184201 16 291 4.8 8.0 0.00 1.88 0.03 56 965.3
20260507183700 16 158 4.8 11.3 0.00 1.88 0.03 60 965.4
20260507183200 16 155 8.0 14.5 0.00 1.88 0.03 59 965.5
20260507182701 16 179 4.8 11.3 0.00 1.88 0.03 55 965.5
20260507182201 17 166 6.4 12.9 0.00 1.88 0.03 55 965.6
20260507181700 17 142 3.2 11.3 0.00 1.88 0.03 55 965.5
20260507181200 17 189 3.2 9.7 0.00 1.88 0.03 52 965.5
20260507180700 17 141 1.6 9.7 0.00 1.88 0.03 55 965.5
20260507180200 17 170 4.8 11.3 0.00 1.88 0.03 53 965.6
20260507175701 17 113 3.2 4.8 0.00 1.88 0.03 55 965.6
20260507175200 16 130 1.6 3.2 0.00 1.88 0.03 57 965.5
20260507174701 15 356 4.8 9.7 0.00 1.88 0.03 55 965.8
20260507174200 15 162 3.2 8.0 0.00 1.88 0.03 56 966.1
20260507173701 15 145 4.8 11.3 0.00 1.88 0.03 57 966.1
20260507173200 15 164 4.8 9.7 0.00 1.88 0.03 57 966.1
20260507172701 15 113 4.8 11.3 0.00 1.88 0.03 58 966.2
20260507172200 15 171 4.8 9.7 0.00 1.88 0.03 58 966.3
20260507171701 15 169 4.8 9.7 0.00 1.88 0.03 58 966.4
20260507171200 14 170 4.8 11.3 0.00 1.88 0.03 59 966.5
20260507170700 14 168 4.8 9.7 0.00 1.88 0.03 61 966.6
20260507170200 15 145 4.8 11.3 0.00 1.88 0.03 61 966.8
20260507165701 15 167 9.7 11.3 0.00 1.88 0.03 60 966.9
20260507165200 15 238 1.6 4.8 0.00 1.88 0.03 57 966.9
20260507164700 15 125 3.2 4.8 0.00 1.88 0.03 58 966.9
20260507164201 15 117 4.8 9.7 0.00 1.88 0.03 61 966.8
20260507163701 15 165 4.8 9.7 0.00 1.88 0.03 60 966.6
20260507162701 14 213 1.6 4.8 0.00 1.88 0.03 63 967.0
20260507162201 13 183 4.8 9.7 0.00 1.88 0.03 64 967.0
20260507161201 13 168 6.4 11.3 0.00 1.88 0.03 67 967.4
20260507160700 13 193 1.6 4.8 0.00 1.88 0.03 64 967.4
20260507155701 13 279 1.6 9.7 0.00 1.88 0.03 66 967.6
20260507155201 13 298 3.2 9.7 0.00 1.88 0.03 66 967.8
20260507154701 13 178 3.2 4.8 0.00 1.88 0.03 66 967.7
20260507154200 13 282 3.2 8.0 0.00 1.88 0.03 67 967.9
20260507153701 13 151 1.6 3.2 0.00 1.88 0.03 68 967.7
20260507153201 13 264 1.6 9.7 0.00 1.88 0.03 70 967.8
20260507152701 13 163 6.4 9.7 0.00 1.88 0.03 69 967.6
20260507152201 13 158 3.2 8.0 0.00 1.88 0.03 68 967.7
20260507151700 12 242 1.6 9.7 0.00 1.88 0.03 74 967.7
20260507151200 12 258 1.6 4.8 0.00 1.88 0.03 72 967.7
20260507150701 12 227 1.6 4.8 0.00 1.88 0.03 72 967.8
20260507145701 11 308 1.6 4.8 0.00 1.88 0.03 76 968.0
20260507144700 11 282 1.6 4.8 0.00 1.88 0.03 78 968.2
20260507144200 11 242 3.2 4.8 0.00 1.88 0.03 79 968.2
20260507143700 11 133 3.2 4.8 0.00 1.88 0.03 79 968.2
20260507143201 11 133 1.6 4.8 0.00 1.88 0.03 79 968.3
20260507142701 11 299 3.2 8.0 0.00 1.88 0.03 80 968.5
20260507142201 11 98 3.2 4.8 0.00 1.88 0.03 80 968.6
20260507141700 11 153 3.2 4.8 0.00 1.88 0.03 81 968.6
20260507141200 11 132 3.2 4.8 0.00 1.88 0.03 81 968.6
20260507140201 11 125 3.2 4.8 0.00 1.96 0.03 81 968.7
20260507135701 11 143 4.8 8.0 0.00 1.96 0.03 80 968.8
20260507135201 11 177 3.2 4.8 0.00 1.96 0.03 80 968.7
20260507134700 11 107 1.6 4.8 0.00 1.96 0.03 80 968.7
20260507134201 11 314 1.6 4.8 0.00 1.96 0.03 82 968.8
20260507133701 11 147 1.6 3.2 0.00 1.96 0.03 80 968.7
20260507133201 11 313 1.6 3.2 0.00 1.96 0.03 79 968.9
20260507132700 11 109 1.6 3.2 0.00 1.96 0.03 80 968.8
20260507131701 11 291 1.6 4.8 0.00 1.96 0.03 82 968.8
20260507131201 11 294 1.6 4.8 0.00 1.96 0.03 82 968.8
20260507130701 11 291 1.6 3.2 0.00 1.96 0.03 80 968.9
20260507125700 11 279 1.6 3.2 0.00 1.98 0.03 82 968.9
20260507125201 11 212 0.0 1.6 0.00 1.98 0.03 82 969.0
20260507124200 11 284 0.0 3.2 0.00 1.98 0.03 82 969.0
20260507123701 11 169 3.2 3.2 0.00 2.01 0.03 81 969.0
20260507123201 11 180 1.6 3.2 0.00 2.06 0.03 82 968.8
20260507122701 11 167 1.6 3.2 0.00 2.08 0.03 81 968.8
20260507122201 11 186 1.6 3.2 0.00 2.11 0.03 82 968.8
20260507121702 11 269 1.6 3.2 0.00 2.11 0.03 84 968.7
20260507121201 11 276 1.6 3.2 0.00 2.13 0.03 83 968.5
20260507120701 11 275 0.0 1.6 0.00 2.16 0.03 83 968.3
20260507120200 11 269 0.0 1.6 0.00 2.16 0.03 84 968.4
20260507115701 11 201 1.6 3.2 0.00 2.18 0.03 84 968.5
20260507115201 11 170 3.2 3.2 0.00 2.24 0.03 84 968.5
20260507114700 11 149 1.6 3.2 0.00 2.24 0.03 84 968.4
20260507114201 11 167 3.2 3.2 0.00 2.24 0.03 84 968.5
20260507113701 11 156 3.2 4.8 0.00 2.24 0.03 83 968.3
20260507113201 11 161 3.2 3.2 0.00 2.24 0.03 84 968.3
20260507112701 11 136 1.6 4.8 0.00 2.24 0.03 85 968.4
20260507111701 11 192 1.6 3.2 0.00 2.24 0.03 86 968.3
20260507111201 11 209 0.0 1.6 0.00 2.26 0.03 89 968.3
20260507110701 11 146 3.2 3.2 0.00 2.26 0.03 89 968.2
20260507110200 11 159 1.6 3.2 0.00 2.26 0.03 88 968.1
20260507105701 11 162 1.6 3.2 0.00 2.26 0.03 88 968.0
20260507105201 10 188 1.6 3.2 0.00 2.26 0.03 86 968.0
20260507104700 11 188 1.6 3.2 0.00 2.26 0.03 88 967.9
20260507104202 10 154 0.0 1.6 0.00 2.29 0.03 89 967.9
20260507103701 10 131 1.6 3.2 0.00 2.29 0.03 89 967.7
20260507102700 11 162 3.2 3.2 0.00 2.31 0.03 90 968.0
20260507102202 11 165 1.6 3.2 0.00 2.31 0.03 90 968.0
20260507101701 11 162 3.2 4.8 0.00 2.31 0.03 88 968.0
20260507101201 11 159 3.2 4.8 0.00 2.31 0.03 88 968.0
20260507100200 11 174 1.6 3.2 0.00 2.31 0.03 85 968.0
20260507095201 11 171 3.2 4.8 0.00 2.31 0.03 86 967.8
20260507094702 11 175 1.6 3.2 0.00 2.31 0.03 86 967.8
20260507094201 11 163 3.2 3.2 0.00 2.31 0.03 87 967.7
20260507093702 11 169 1.6 3.2 0.00 2.31 0.03 89 967.8
20260507093201 11 145 1.6 3.2 0.00 2.31 0.03 89 967.7
20260507092701 11 152 3.2 4.8 0.00 2.31 0.03 87 967.8
20260507090701 11 162 1.6 4.8 0.00 2.31 0.03 90 967.8
20260507090201 11 156 3.2 4.8 0.00 2.31 0.03 90 967.7
20260507085700 11 167 1.6 3.2 0.00 2.31 0.03 89 967.7
20260507085201 11 164 1.6 4.8 0.00 2.31 0.03 88 967.5
20260507084701 11 173 3.2 4.8 0.00 2.31 0.03 88 967.4
20260507084201 11 150 4.8 8.0 0.00 2.31 0.03 88 967.5
20260507083201 11 179 1.6 4.8 0.00 2.31 0.03 87 967.5
20260507082701 11 94 3.2 3.2 0.00 2.31 0.03 87 967.5
20260507082202 11 177 3.2 3.2 0.00 2.31 0.03 87 967.6
20260507081701 11 166 3.2 4.8 0.00 2.31 0.03 87 967.6
20260507081202 11 159 1.6 3.2 0.00 2.31 0.03 90 967.7
20260507080700 11 177 3.2 3.2 0.00 2.31 0.03 90 967.9
20260507080201 11 152 1.6 4.8 0.00 2.31 0.03 89 968.0
20260507075700 11 173 3.2 8.0 0.00 2.31 0.03 88 967.8
20260507075201 11 163 3.2 4.8 0.00 2.31 0.03 89 967.7
20260507074701 11 154 1.6 3.2 0.00 2.31 0.03 89 967.7
20260507073701 11 172 1.6 1.6 0.00 2.31 0.03 88 967.7
20260507073201 11 170 0.0 3.2 0.00 2.31 0.03 89 967.6
20260507072701 11 212 1.6 3.2 0.00 2.31 0.03 88 967.5
20260507072201 12 203 1.6 8.0 0.00 2.31 0.03 88 967.3
20260507071701 12 134 3.2 11.3 0.00 2.31 0.03 89 967.1
20260507071201 12 191 3.2 8.0 0.00 2.31 0.03 87 967.1
20260507070701 12 153 3.2 4.8 0.00 2.31 0.03 89 967.2
20260507070201 12 229 3.2 4.8 0.00 2.31 0.03 90 967.3
20260507065700 12 240 1.6 8.0 0.00 2.31 0.03 90 967.1
20260507065201 12 138 4.8 8.0 0.00 2.31 0.03 89 967.2
20260507064701 12 149 3.2 8.0 0.00 2.31 0.03 90 967.1
20260507064201 12 150 3.2 9.7 0.00 2.31 0.03 90 967.2
20260507063700 12 171 3.2 8.0 0.00 2.31 0.03 91 967.3
20260507063200 12 156 3.2 4.8 0.00 2.31 0.03 91 967.3
20260507062701 12 234 1.6 3.2 0.00 2.31 0.03 91 967.3
20260507062202 12 173 1.6 4.8 0.00 2.31 0.03 91 967.2
20260507061701 12 179 1.6 4.8 0.00 2.31 0.03 91 967.1
20260507060701 13 156 3.2 8.0 0.00 2.31 0.03 92 967.0
20260507060200 13 124 1.6 3.2 0.00 2.31 0.03 92 967.3
20260507055701 13 180 3.2 8.0 0.00 2.31 0.03 91 967.5
20260507055201 13 186 3.2 4.8 0.03 2.31 0.03 92 967.5
20260507054701 13 212 1.6 4.8 0.03 2.31 0.03 92 967.5
20260507054200 13 171 4.8 4.8 0.03 2.31 0.03 92 967.4
20260507053701 13 167 4.8 8.0 0.03 2.31 0.03 92 967.6
20260507053201 13 195 4.8 8.0 0.03 2.31 0.03 93 967.5
20260507052701 13 180 3.2 8.0 0.03 2.31 0.03 92 967.4
20260507052201 13 202 4.8 9.7 0.03 2.31 0.03 91 966.9
20260507051701 13 161 3.2 9.7 0.03 2.31 0.03 92 967.1
20260507051201 13 144 3.2 9.7 0.03 2.31 0.03 92 967.2
20260507045201 14 288 1.6 8.0 0.03 2.31 0.03 94 966.7
20260507044701 14 233 1.6 8.0 0.00 2.26 0.00 95 966.6
20260507044201 15 282 3.2 9.7 0.33 2.26 0.00 95 966.5
20260507043702 15 307 1.6 8.0 0.33 2.26 0.00 96 966.4
20260507043201 15 192 1.6 4.8 0.33 2.26 0.00 95 966.2
20260507042701 15 319 1.6 4.8 0.33 2.26 0.00 95 966.0
20260507042201 15 161 4.8 8.0 0.33 2.26 0.00 94 965.3
20260507041701 15 167 4.8 8.0 0.33 2.26 0.00 95 965.6
20260507041201 15 96 3.2 4.8 0.33 2.26 0.00 95 965.9
20260507040201 15 157 3.2 4.8 0.33 2.26 0.00 96 966.4
20260507035201 15 293 3.2 4.8 0.18 2.26 1.47 96 967.0
20260507034701 15 150 1.6 3.2 0.48 2.26 1.47 96 967.0
20260507034201 15 196 1.6 3.2 0.18 1.96 1.14 96 967.1
20260507033700 15 315 1.6 3.2 0.20 1.96 1.14 96 967.3
20260507033201 15 280 1.6 3.2 0.20 1.96 1.14 96 966.9
20260507032701 15 323 1.6 3.2 0.20 1.96 1.14 96 966.9
20260507031201 15 163 3.2 4.8 0.23 1.96 1.14 96 966.6
20260507030701 15 266 1.6 3.2 0.23 1.96 1.14 96 966.6
20260507025702 15 167 3.2 4.8 0.36 1.96 1.14 95 966.7
20260507025201 15 122 1.6 3.2 0.51 1.96 1.30 95 966.6
20260507024701 15 131 0.0 1.6 0.18 1.63 0.97 95 966.7
20260507021701 16 224 3.2 8.0 0.15 1.57 0.94 92 965.9
20260507021201 16 173 1.6 8.0 0.15 1.57 0.91 90 966.0
20260507020701 16 167 8.0 11.3 0.15 1.57 0.91 89 966.0
20260507020201 16 155 4.8 8.0 0.36 1.45 0.79 91 965.9
20260507015201 16 220 0.0 1.6 0.36 1.45 0.79 93 966.3
20260507014701 16 279 0.0 1.6 0.36 1.45 0.79 92 966.2
20260507014201 16 181 1.6 3.2 0.36 1.45 0.79 91 966.0
20260507012701 16 149 3.2 4.8 0.36 1.45 0.79 90 965.5
20260507012201 16 154 3.2 4.8 0.36 1.42 0.79 91 965.5
20260507011702 16 191 1.6 4.8 0.36 1.42 0.79 92 965.6
20260507010700 17 211 6.4 9.7 0.05 1.42 0.79 92 965.5
20260507010200 17 129 4.8 4.8 0.03 1.09 0.46 90 965.9
20260507005701 17 119 3.2 3.2 0.05 1.09 0.46 90 966.1
20260507005201 17 118 3.2 4.8 0.30 1.09 0.43 89 966.1
20260507004701 17 134 3.2 4.8 0.30 1.09 0.43 90 966.2
20260507003701 17 305 1.6 3.2 0.10 1.09 0.43 90 966.4
20260507002701 17 122 3.2 4.8 0.10 1.09 0.43 90 966.0